Location: ???? ???? ?????
(31.2680°N, 31.7283°E)
Time: 19:46:06
(UTC+00:00)

MOS 1 - Pass Details

Date: 13 July 2020
Orbit: 878 x 891 km, 99.2° (Epoch: 05 August)

Event Time Altitude Azimuth Distance (km) Brightness Sun altitude
Exits shadow 17:54:44 - 168° (SSE) 3,145 6.7 -11.1°
Reaches altitude 10° 17:56:18 10° 169° (S) 2,532 6.3 -11.4°
Maximum altitude 18:01:56 81° 257° (WSW) 896 4.4 -12.4°
Drops below altitude 10° 18:07:36 10° 344° (NNW) 2,538 7.5 -13.4°
Sets 18:09:59 0° 346° (NNW) 3,479 8.3 -13.8°
